Regional Weather Roundup
Issued by NWS

Home | Current Version | Previous Version | Text Only | Print | Product List | Glossary On
Versions: 1 2 3 4 5 6 7 8 9 10 11 12 13 14 15 16 17 18 19 20 21 22 23 24 25 26 27 28 29 30 31 32 33 34 35 36 37 38 39 40 41 42 43 44 45 46 47 48 49 50
000
ASUS43 KDTX 232010
RWRMI
MICHIGAN HOURLY REGIONAL WEATHER ROUNDUP
NATIONAL WEATHER SERVICE DETROIT/PONTIAC MI
400 PM EDT SAT JUL 23 2016

NOTE: "FAIR" INDICATES FEW OR NO CLOUDS BELOW 12,000 FEET WITH NO
SIGNIFICANT WEATHER AND/OR OBSTRUCTION TO VISIBILITY.

MIZ047>049-052>055-059>063-066>070-074>076-081>083-232100-
SOUTHEAST LOWER MICHIGAN

CITY           SKY/WX    TMP DP  RH WIND       PRES   REMARKS
ADRIAN         SUNNY     92  64  39 VRB7      29.99S HX  93
ALMA           SUNNY     91  59  34 NW8       29.99S HX  90
ANN ARBOR      MOSUNNY   95  62  33 NW9       29.97F HX  96
BAD AXE        SUNNY     88  53  30 NE7       30.00F
CARO           SUNNY     92  55  28 NW5       29.98F
DETROIT CITY   SUNNY     91  61  36 SE6       29.96S HX  91
DETROIT        MOSUNNY   96  61  31 W7        29.96F HX  96
FLINT          SUNNY     97  54  23 NW7       29.98F HX  95
GROSSE ILE     SUNNY     87  75  67 S9        29.95F HX  95
HOWELL         SUNNY     92  54  27 E3        29.99F

CITY           SKY/WX    TMP DP  RH WIND       PRES   REMARKS
JACKSON        MOSUNNY   89  63  41 NW6       30.00S HX  90
LAMBERTVILLE   SUNNY     93  68  43 N6        29.98S HX  98
LANSING        SUNNY     92  59  33 CALM      29.99F HX  91
LAPEER         FAIR      89  59  35 CALM      29.99F
MASON          CLOUDY    91  62  38 E3        29.99S HX  91
MONROE         SUNNY     92  68  46 W9        29.96F HX  96
MT. CLEMENS    MOSUNNY   90  64  41 E8        29.95S HX  91
PONTIAC        MOSUNNY   92  58  31 CALM      29.99S HX  91
PORT HOPE        N/A     78  64  61 NE3       30.00
PORT HURON     SUNNY     86  61  42 NE8       29.99S
TRI CITIES     SUNNY     90  61  37 E6        29.99F HX  90
MIDLAND        FAIR      91  58  33 CALM      29.97F
TROY           SUNNY     94  51  23 NW8       29.99F HX  91
SAGINAW HB     SUNNY     91  54  27 N3        29.99S
$$
MIZ043>046-050>051-056>058-064>065-071>073-077>080-232100-
SOUTHWEST LOWER MICHIGAN

CITY           SKY/WX    TMP DP  RH WIND       PRES   REMARKS
BATTLE CREEK   CLOUDY    87  66  49 SW6       30.01F
BENTON HARBOR  MOSUNNY   89  73  59 N3        29.97F HX  97
BIG RAPIDS     CLOUDY    89  53  28 CALM      29.99F
COLDWATER      MOSUNNY   89  62  40 CALM      30.01S
FREMONT        FAIR      91  57  32 E5        29.98S
HOLLAND        CLOUDY    89  71  55 W7        29.99F HX  95
GRAND RAPIDS   CLOUDY    91  61  36 VRB5      29.98F HX  91
IONIA          FAIR      91  57  31 SW3       29.98F
KALAMAZOO      PTSUNNY   90  63  40 S6        29.99F HX  91
LUDINGTON      CLOUDY    86  67  53 NW7       29.97S
MARSHALL       CLOUDY    91  68  47 SW8       30.00S HX  94
MOUNT PLEASANT SUNNY     93  53  26 CALM      29.98S HX  90
MUSKEGON       PTSUNNY   88  72  58 W7        29.98F HX  94
SOUTH HAVEN    MOSUNNY   88  72  59 NW5       29.97F HX  95
$$
MIZ016>042-232100-
NORTHERN LOWER MICHIGAN

CITY           SKY/WX    TMP DP  RH WIND       PRES   REMARKS
ALPENA         SUNNY     92  53  26 VRB5      29.99F
BEAVER ISLAND  SUNNY     84  61  44 NW5       29.99F
BELLAIRE       SUNNY     90  56  31 CALM      29.97F
CADILLAC       CLOUDY    89  56  32 NW5       30.01F
CHARLEVOIX     SUNNY     83  63  50 N6        30.01F
FRANKFORT      CLOUDY    85  59  41 W6        29.98F
GAYLORD        SUNNY     88  54  31 NW3       30.02F
GRAYLING       SUNNY     91  56  30 NE3       30.01S
HARBOR SPRINGS SUNNY     87  57  35 SW3       29.98F
HOUGHTON LAKE  SUNNY     89  55  31 SW8       30.01F
MANISTEE       CLOUDY    85  64  49 NW7       29.96F
OSCODA         SUNNY     84  57  40 E6        29.99F
PELLSTON       SUNNY     88  56  33 NW5       29.99F
ROGERS CITY    SUNNY     80  59  48 NE6       30.01F
TRAVERSE CITY  CLOUDY    89  55  31 N7        29.96F
$$
MIZ007>008-015-232100-
EASTERN UPPER MICHIGAN

CITY           SKY/WX    TMP DP  RH WIND       PRES   REMARKS
KINROSS        SUNNY     86  59  39 NW7       29.99F
MACKINAC ISLAN SUNNY     84  55  37 W6        30.00F
NEWBERRY       MOSUNNY   86  63  44 SW3       29.98F HAZE
S. S. MARIE    SUNNY     85  58  39 W7        29.98F
MUNISING         N/A     74  66  76 NE12      29.97F
$$
MIZ004>006-011>014-085-232100-
CENTRAL UPPER MICHIGAN

CITY           SKY/WX    TMP DP  RH WIND       PRES   REMARKS
MANISTIQUE     MOSUNNY   80  63  55 S6        29.98F
ESCANABA       CLOUDY    79  63  57 S8        29.95F
MENOMINEE      CLOUDY    81  66  60 SE5       29.97F
SAWYER-GWINN   SUNNY     86  55  35 S5        29.99F
$$
MIZ001>003-009>011-084-232100-
WESTERN UPPER MICHIGAN

CITY           SKY/WX    TMP DP  RH WIND       PRES   REMARKS
IRON MOUNTAIN  CLOUDY    88  60  38 S10       29.97F
HOUGHTON       CLOUDY    78  61  55 E10       29.96F
COPPER HARBOR    N/A     79  58  48 VRB3      29.96F
IRONWOOD       PTSUNNY   84  64  51 S7        29.90F
$$

ABBREVIATIONS USED IN REMARKS
   TC - TEMPERATURE IN CELSIUS
  WCI - WIND CHILL INDEX
   HX - HEAT INDEX
  VSB - VISIBILITY





USA.gov is the U.S. government's official web portal to all federal, state and local government web resources and services.